User: anonymous   Login
Location: Boncourt
(49.6160°N, 3.9448°E)
Time: 13:57:06
(UTC+00:00)
Language:

Cosmos 909 Rocket - Orbit

View from above orbital plane
View from above orbital plane
View from above satellite
View from above satellite

Ground track
Ground track

The orbit data is extracted from the following two-line orbital elements,

1 10011U 77036B   23149.91303243 -.00000048  00000-0  20598-4 0  9991
2 10011  65.8662  83.1166 0692216 110.2584 316.3307 12.32228809 49654
Epoch (UTC): 29 May 2023 21:54:46
Eccentricity: 0.0692216
inclination: 65.8662°
perigee height: 991 km
apogee height: 2088 km
right ascension of ascending node: 83.1166°
argument of perigee: 110.2584°
revolutions per day: 12.32228809
mean anomaly at epoch: 316.3307°
orbit number at epoch: 4965

The dashed part of the orbit path shows where the satellite is in the earth's shadow,  

DLR